This is the latest recevied weather packets stored in our database for station/object AF5AA. If no packets are shown the sender has not sent any weather packets the latest 1 day(s).
| Time | Temp. | Humidity | Pressure | Rain* | Wind** | Luminosity | Snow |
|---|---|---|---|---|---|---|---|
| 1778078557 | 17.22° C | 89% | 1011.4 hPa | 0 mm | - | 33 W/m² | - |
| 1778078254 | 17.22° C | 89% | 1011.3 hPa | 0 mm | - | 44 W/m² | - |
| 1778077650 | 17.22° C | 89% | 1011.1 hPa | 0 mm | - | 35 W/m² | - |
| 1778076744 | 17.78° C | 88% | 1011 hPa | 0 mm | - | 46 W/m² | - |
| 1778076441 | 17.78° C | 88% | 1010.8 hPa | 0 mm | - | 34 W/m² | - |
| 1778075531 | 18.33° C | 88% | 1010.7 hPa | 0 mm | - | 20 W/m² | - |
| 1778074318 | 20° C | 87% | 1010.4 hPa | 0 mm | - | 15 W/m² | - |
| 1778072500 | 23.33° C | 97% | 1009.7 hPa | 0 mm | - | 17 W/m² | - |
| 1778072198 | 23.33° C | 97% | 1009.7 hPa | 0 mm | - | 29 W/m² | - |
| 1778071593 | 23.33° C | 97% | 1009.6 hPa | 0 mm | - | 21 W/m² | - |
| 1778071291 | 23.33° C | 97% | 1009.4 hPa | 0 mm | - | 14 W/m² | - |
| 1778070988 | 23.33° C | 97% | 1009.5 hPa | 0 mm | - | 14 W/m² | - |
| 1778070687 | 23.33° C | 97% | 1009.4 hPa | 0 mm | - | 11 W/m² | - |
| 1778070081 | 23.33° C | 97% | 1009.4 hPa | 0 mm | - | 9 W/m² | - |
| 1778068266 | 23.33° C | 96% | 1008.9 hPa | 0 mm | - | 1 W/m² | - |
| 1778067661 | 23.33° C | 96% | 1008.9 hPa | 0 mm | - | 1 W/m² | - |
| 1778066752 | 23.33° C | 95% | 1008.7 hPa | 0 mm | - | 0 W/m² | - |
| 1778065844 | 23.33° C | 95% | 1008.5 hPa | 0 mm | - | 0 W/m² | - |
| 1778065542 | 23.33° C | 95% | 1008.5 hPa | 0 mm | - | 0 W/m² | - |
| 1778064935 | 23.33° C | 95% | 1008.3 hPa | 0 mm | - | 0 W/m² | - |
| 1778064028 | 23.33° C | 95% | 1008.2 hPa | 0 mm | - | 0 W/m² | - |
| 1778063725 | 23.33° C | 95% | 1007.9 hPa | 0 mm | - | 0 W/m² | - |
| 1778062211 | 23.33° C | 95% | 1007.9 hPa | 0 mm | - | 0 W/m² | - |
| 1778061001 | 23.33° C | 95% | 1008.1 hPa | 0 mm | - | 0 W/m² | - |
| 1778060095 | 23.33° C | 95% | 1007.9 hPa | 0 mm | - | 0 W/m² | - |
* Rain latest hour (hover to see other rain measurements)
** Current wind speed in m/s (hover to see current wind gust speed)